EW3246 Weather Reports


time (UTC)temp
F
wind
direction
speed
knots
gust
knots
rain 1hr
in
rain 24hr
in
rain mn
in
humidity
%
barometer
mb
20260504151010 66 119 7.8 12.2 0.00 0.00 0.00 48 1014.8
20260504150602 66 95 5.2 11.3 0.00 0.00 0.00 52 1014.9
20260504141010 61 49 1.7 5.2 0.00 0.00 0.00 63 1014.7
20260504140556 60 49 1.7 5.2 0.00 0.00 0.00 60 1014.7
20260504140105 60 49 0.9 5.2 0.00 0.00 0.00 64 1014.7
20260504130557 52 49 0.0 2.6 0.00 0.00 0.00 73 1014.9
20260504120106 42 49 0.0 0.0 0.00 0.00 0.00 94 1014.7
20260504110530 39 49 0.0 0.0 0.00 0.00 0.00 94 1014.7
20260504100524 38 49 0.0 0.0 0.00 0.00 0.00 93 1014.6
20260504081548 39 49 0.0 0.0 0.00 0.00 0.00 91 1014.6
20260504081029 39 49 0.0 0.0 0.00 0.00 0.00 91 1014.6
20260504080508 39 49 0.0 0.0 0.00 0.00 0.00 91 1014.6
20260504050512 43 49 0.0 0.0 0.00 0.00 0.00 84 1014.9
20260504045511 43 49 0.0 0.0 0.00 0.00 0.00 82 1014.9
20260504045052 44 49 0.0 0.0 0.00 0.00 0.00 81 1014.9
20260504044603 44 49 0.0 0.0 0.00 0.00 0.00 82 1014.8
20260504044038 44 49 0.0 0.0 0.00 0.00 0.00 82 1014.8
20260504043520 44 49 0.0 0.0 0.00 0.00 0.00 81 1014.8
20260504043033 44 49 0.0 0.0 0.00 0.00 0.00 81 1014.8
20260504042518 44 49 0.0 0.0 0.00 0.00 0.00 81 1014.9
20260504042053 44 49 0.0 0.0 0.00 0.00 0.00 81 1015.0
20260504041600 44 49 0.0 0.0 0.00 0.00 0.00 80 1015.1
20260504041042 45 49 0.0 0.0 0.00 0.00 0.00 80 1014.9
20260504040529 45 49 0.0 0.0 0.00 0.00 0.00 79 1014.8
20260504040034 45 49 0.0 2.6 0.00 0.00 0.00 79 1014.9
20260504035602 46 49 0.0 2.6 0.00 0.00 0.00 78 1014.7
20260504035048 46 49 0.0 1.7 0.00 0.00 0.00 76 1014.7
20260504034504 46 49 0.0 0.0 0.00 0.00 0.00 74 1014.7
20260504034047 46 49 0.0 0.0 0.00 0.00 0.00 73 1014.6
20260504033536 46 49 0.0 0.0 0.00 0.00 0.00 73 1014.7
20260504033025 46 49 0.0 0.0 0.00 0.00 0.00 74 1014.6
20260504032602 46 49 0.0 0.0 0.00 0.00 0.00 74 1014.7
20260504032049 47 49 0.0 0.0 0.00 0.00 0.00 75 1014.7
20260504031530 47 49 0.0 0.0 0.00 0.00 0.00 74 1014.8
20260504031010 47 49 0.0 0.0 0.00 0.00 0.00 74 1014.8
20260504030554 47 49 0.0 0.0 0.00 0.00 0.00 74 1015.0
20260504030004 47 49 0.0 0.0 0.00 0.00 0.00 73 1014.9
20260504025552 48 49 0.0 0.0 0.00 0.00 0.00 72 1014.9
20260504025029 48 49 0.0 0.0 0.00 0.00 0.00 72 1014.8
20260504024540 48 49 0.0 0.0 0.00 0.00 0.00 69 1014.7
20260504024029 49 49 0.0 0.0 0.00 0.00 0.00 68 1014.7
20260504023603 49 49 0.0 0.0 0.00 0.00 0.00 68 1014.6
20260504023012 50 49 0.0 1.7 0.00 0.00 0.00 67 1014.7
20260504022601 50 49 0.0 1.7 0.00 0.00 0.00 67 1014.7
20260504022042 50 49 0.0 0.0 0.00 0.00 0.00 66 1014.7
20260504021608 51 49 0.0 0.0 0.00 0.00 0.00 63 1014.7
20260504021048 51 49 0.0 0.0 0.00 0.00 0.00 64 1014.7
20260504020534 51 49 0.0 0.0 0.00 0.00 0.00 62 1014.6
20260504020048 51 49 0.0 0.9 0.00 0.00 0.00 64 1014.3
20260504015535 51 49 0.0 1.7 0.00 0.00 0.00 63 1014.3
20260504015009 52 49 0.0 0.9 0.00 0.00 0.00 61 1014.2
20260504014529 53 49 0.0 0.9 0.00 0.00 0.00 58 1014.1
20260504014001 53 49 0.0 1.7 0.00 0.00 0.00 56 1013.9
20260504013552 54 49 0.9 1.7 0.00 0.00 0.00 60 1013.9
20260504013101 55 49 0.0 0.9 0.00 0.00 0.00 58 1013.8
20260504012543 55 49 0.0 0.9 0.00 0.00 0.00 53 1013.7
20260504012025 56 49 0.0 0.0 0.00 0.00 0.00 49 1013.7
20260504011533 56 49 0.0 0.0 0.00 0.00 0.00 50 1013.6
20260504011010 56 49 0.0 0.9 0.00 0.00 0.00 48 1013.6
20260504010558 56 49 0.0 0.9 0.00 0.00 0.00 48 1013.5
20260504010043 57 49 0.0 0.9 0.00 0.00 0.00 48 1013.5
20260504005520 57 49 0.0 1.7 0.00 0.00 0.00 47 1013.5
20260504005101 58 49 0.0 1.7 0.00 0.00 0.00 46 1013.6
20260504004548 58 49 0.0 1.7 0.00 0.00 0.00 46 1013.5
20260504004029 58 49 0.0 1.7 0.00 0.00 0.00 45 1013.5
20260504003511 59 49 0.9 1.7 0.00 0.00 0.00 44 1013.5
20260504003040 59 49 0.0 0.9 0.00 0.00 0.00 44 1013.6
20260504002502 59 49 0.0 0.9 0.00 0.00 0.00 43 1013.6
20260504002050 59 49 0.0 0.9 0.00 0.00 0.00 42 1013.5
20260504001623 60 49 0.0 0.9 0.00 0.00 0.00 42 1013.5
20260504001049 60 49 0.0 0.9 0.00 0.00 0.00 41 1013.4
20260504000534 61 49 0.0 0.0 0.00 0.00 0.00 41 1013.4
20260504000043 61 49 0.0 2.6 0.00 0.00 0.00 40 1013.3
20260503235538 62 49 0.0 3.5 0.00 0.00 0.00 39 1013.3
20260503235020 62 49 0.0 3.5 0.00 0.00 0.00 40 1013.3
20260503234545 63 49 0.9 3.5 0.00 0.00 0.00 37 1013.2
20260503234025 63 49 0.9 4.3 0.00 0.00 0.00 37 1013.2
20260503233601 64 49 0.9 4.3 0.00 0.00 0.00 36 1013.2
20260503233022 64 49 0.9 5.2 0.00 0.00 0.00 34 1013.2
20260503232558 64 49 0.9 5.2 0.00 0.00 0.00 34 1013.1
20260503232047 64 49 0.9 3.5 0.00 0.00 0.00 34 1013.1
20260503231553 64 49 0.9 4.3 0.00 0.00 0.00 35 1013.1
20260503231035 65 49 1.7 4.3 0.00 0.00 0.00 33 1013.2
20260503230527 65 49 1.7 3.5 0.00 0.00 0.00 35 1013.3
20260503230037 65 49 0.9 5.2 0.00 0.00 0.00 34 1013.2
20260503225504 65 49 1.7 5.2 0.00 0.00 0.00 35 1013.2
20260503225052 65 49 0.9 3.5 0.00 0.00 0.00 34 1013.3
20260503224537 65 49 2.6 6.1 0.00 0.00 0.00 32 1013.3
20260503224012 65 49 3.5 6.1 0.00 0.00 0.00 32 1013.3
20260503223600 65 48 1.7 5.2 0.00 0.00 0.00 32 1013.3
20260503223020 65 48 1.7 8.7 0.00 0.00 0.00 33 1013.4
20260503222558 65 48 2.6 10.4 0.00 0.00 0.00 33 1013.5
20260503222041 65 47 3.5 10.4 0.00 0.00 0.00 31 1013.6
20260503221548 65 48 3.5 9.6 0.00 0.00 0.00 32 1013.6
20260503221035 65 60 3.5 8.7 0.00 0.00 0.00 31 1013.5
20260503220509 65 70 3.5 7.8 0.00 0.00 0.00 32 1013.6
20260503220042 65 74 2.6 8.7 0.00 0.00 0.00 32 1013.7
20260503215503 66 93 4.3 8.7 0.00 0.00 0.00 31 1013.8
20260503215053 66 80 5.2 12.2 0.00 0.00 0.00 31 1013.7
20260503214557 66 70 4.3 12.2 0.00 0.00 0.00 31 1013.8
20260503214038 66 49 1.7 8.7 0.00 0.00 0.00 32 1013.7
20260503213516 66 60 0.9 10.4 0.00 0.00 0.00 32 1013.8
20260503213143 66 60 4.3 10.4 0.00 0.00 0.00 32 1013.8
20260503212552 66 74 2.6 8.7 0.00 0.00 0.00 31 1013.8
20260503212023 66 79 5.2 11.3 0.00 0.00 0.00 31 1013.7
20260503211505 66 97 4.3 10.4 0.00 0.00 0.00 32 1013.9
20260503211052 67 76 4.3 7.8 0.00 0.00 0.00 32 1014.1
20260503210532 66 89 2.6 9.6 0.00 0.00 0.00 30 1014.0
20260503210054 66 88 3.5 9.6 0.00 0.00 0.00 30 1014.1
20260503205527 66 79 2.6 7.8 0.00 0.00 0.00 31 1014.1
20260503205008 66 74 0.9 8.7 0.00 0.00 0.00 35 1014.1
20260503204527 65 74 1.7 9.6 0.00 0.00 0.00 31 1014.1
20260503204006 65 81 2.6 8.7 0.00 0.00 0.00 34 1014.1
20260503203553 65 71 4.3 9.6 0.00 0.00 0.00 30 1014.2
20260503203107 65 72 6.1 11.3 0.00 0.00 0.00 29 1014.2
20260503202555 65 108 3.5 11.3 0.00 0.00 0.00 28 1014.3
20260503202041 65 93 3.5 9.6 0.00 0.00 0.00 31 1014.3
20260503201553 65 93 3.5 9.6 0.00 0.00 0.00 30 1014.4
20260503201040 65 112 3.5 7.8 0.00 0.00 0.00 30 1014.7
20260503200532 65 112 2.6 10.4 0.00 0.00 0.00 31 1014.7
20260503200049 65 112 3.5 7.8 0.00 0.00 0.00 37 1014.9
20260503195532 65 106 3.5 8.7 0.00 0.00 0.00 33 1014.9
20260503195020 65 120 1.7 9.6 0.00 0.00 0.00 35 1014.9
20260503194506 64 122 4.3 9.6 0.00 0.00 0.00 32 1014.9
20260503194058 64 130 3.5 7.8 0.00 0.00 0.00 33 1015.0
20260503193541 63 132 2.6 9.6 0.00 0.00 0.00 34 1015.1
20260503193035 64 117 4.3 11.3 0.00 0.00 0.00 33 1015.2
20260503192510 64 91 6.1 11.3 0.00 0.00 0.00 33 1015.2
20260503192058 63 68 2.6 12.2 0.00 0.00 0.00 35 1015.2
20260503191518 63 68 7.8 12.2 0.00 0.00 0.00 34 1015.3
20260503191057 63 101 6.1 12.2 0.00 0.00 0.00 35 1015.2
20260503190545 63 114 2.6 12.2 0.00 0.00 0.00 33 1015.4
20260503190037 63 108 4.3 10.4 0.00 0.00 0.00 31 1015.4
20260503185528 63 118 4.3 12.2 0.00 0.00 0.00 32 1015.4
20260503185003 63 92 7.8 12.2 0.00 0.00 0.00 32 1015.6
20260503184610 63 139 4.3 9.6 0.00 0.00 0.00 29 1015.7
20260503184047 62 90 3.5 12.2 0.00 0.00 0.00 32 1015.6
20260503183533 62 94 7.0 12.2 0.00 0.00 0.00 32 1015.7
20260503183039 62 104 5.2 9.6 0.00 0.00 0.00 34 1015.9
20260503182512 61 125 5.2 9.6 0.00 0.00 0.00 34 1016.0
20260503182100 61 103 3.5 11.3 0.00 0.00 0.00 35 1016.1
20260503181520 61 105 6.1 11.3 0.00 0.00 0.00 34 1016.2
20260503181058 61 108 6.1 15.6 0.00 0.00 0.00 34 1016.2
20260503180548 62 121 8.7 15.6 0.00 0.00 0.00 33 1016.2
20260503180008 61 110 1.7 9.6 0.00 0.00 0.00 37 1016.2
20260503175549 61 111 5.2 10.4 0.00 0.00 0.00 37 1016.3
20260503175042 61 128 5.2 12.2 0.00 0.00 0.00 34 1016.4
20260503174555 60 67 7.8 12.2 0.00 0.00 0.00 35 1016.3
20260503174036 60 129 0.9 10.4 0.00 0.00 0.00 35 1016.3
20260503173522 60 101 4.3 8.7 0.00 0.00 0.00 34 1016.4
20260503173033 59 78 3.5 12.2 0.00 0.00 0.00 35 1016.4
20260503172504 59 96 5.2 12.2 0.00 0.00 0.00 33 1016.6
20260503172054 59 100 0.9 12.2 0.00 0.00 0.00 39 1016.4
20260503171501 59 95 6.1 12.2 0.00 0.00 0.00 36 1016.8
20260503171048 58 87 6.1 10.4 0.00 0.00 0.00 37 1016.7
20260503170534 58 68 5.2 11.3 0.00 0.00 0.00 36 1016.8